Погода в Веселом

Россия / Ростовская область     47°35′41″N   39°38′22″E
темп.,
°C
ветер,
м/с
пор.,
м/с
влажн.,
%
обл.,
%
осадки,
мм/ч
давл.,
гПа
погр.,
м
7 марта, вс
вс700:00−2сз4106834 0.0 1022512
03:00−3сз387318 0.0 1024585
06:00−3з35740 0.0 1025223
09:00−1зюз58610 0.0 1025812
12:00+1з69490 0.0 10241490
15:00+2зюз810512 0.0 10221590
18:00−1юз8136323 0.0 1020702
21:00−1зюз8156912 0.0 1019624
8 марта, пн
пн800:00−1зюз714730 0.0 1018662
03:00−1зюз815620 0.0 1017574
06:00−1зюз715650 0.0 1016618
09:00+1зюз914675 0.0 1015811
12:00+4зюз10136224 0.0 10151277
15:00+4зюз10136549 0.0 10131250
18:00+2зюз8147390 0.0 1012750
21:00+1юз7157660 0.0 1013684
9 марта, вт
вт900:00+1зюз7119497 0.2 1012605
03:00+1з589798 0.6 1012491
06:00−1зсз4986100 0.0 1013519
09:000зсз685982 0.0 1015981
12:00+2з79500 0.0 10161566
15:00+3зсз79490 0.0 10161847
18:00+1зсз795395 0.1 10171619
21:00−1сз585967 0.1 10201197
10 марта, ср
ср1000:00−2сз56590 0.0 10211111
03:00−3сз465713 0.0 10221026
06:00−4ссз446129 0.0 1023882
09:00−4с454725 0.0 1025863
12:00−2ссв33322 0.0 10251166
15:00−1ссв443043 0.0 10241204
18:00−2св4641100 0.0 1024765
21:00−3всв4643100 0.0 1025870
11 марта, чт
чт1100:00−4всв5844100 0.0 1025752
03:00−5всв684780 0.0 1025749
06:00−6всв69390 0.0 1026675
09:00−6всв710350 0.0 1027678
12:00−3в79270 0.0 10271025
15:00−2всв68280 0.0 10271240
18:00−4всв67340 0.0 10281251
21:00−5всв67350 0.0 10301203